Tracking 28790 objects as of 18-Apr-2024
HD Live streaming from Space Station
objects crossing your sky now

SL-12 R/B(2)

Track SL-12 R/B(2) now!


NORAD ID: 23429
Int'l Code: 1994-082D
Perigee: 35,518.7 km
Apogee: 35,777.1 km
Inclination: 14.7 °
Period: 1,428.7 minutes
Semi major axis: 42018 km
RCS: 2.5118 m2 (large)
Launch date: December 16, 1994
Source: Commonwealth of Independent States (former USSR) (CIS)
Launch site: TYURATAM MISSILE AND SPACE COMPLEX (TTMTR)

Note: This is a ROCKET BODY
Your satellite tracking list
Your tracking list is empty




NASA's NSSDC Master Catalog

Two Line Element Set (TLE):
1 23429U 94082D   24109.37896433  .00000084  00000-0  00000-0 0  9994
2 23429  14.6550   0.2744 0030746 117.9420  68.2636  1.00794325107936
Source of the keplerian elements: AFSPC